Year,Month,Day,Hour,Minute,Value (Times are PST for temperature in C)
2013,07,05,00,00,15.00
2013,07,05,00,01,15.00
2013,07,05,00,02,15.00
2013,07,05,00,03,15.00
2013,07,05,00,04,15.00
2013,07,05,00,05,15.00
2013,07,05,00,06,15.00
2013,07,05,00,07,15.00
2013,07,05,00,08,15.00
2013,07,05,00,09,15.00
2013,07,05,00,10,15.00
2013,07,05,00,11,15.00
2013,07,05,00,12,15.00
2013,07,05,00,13,15.00
2013,07,05,00,14,15.00
2013,07,05,00,15,15.00
2013,07,05,00,16,15.00
2013,07,05,00,17,15.00
2013,07,05,00,18,14.90
2013,07,05,00,19,14.90
2013,07,05,00,20,14.90
2013,07,05,00,21,14.90
2013,07,05,00,22,14.80
2013,07,05,00,23,14.80
2013,07,05,00,24,14.80
2013,07,05,00,25,14.80
2013,07,05,00,26,14.80
2013,07,05,00,27,14.80
2013,07,05,00,28,14.80
2013,07,05,00,29,14.80
2013,07,05,00,30,14.80
2013,07,05,00,31,14.70
2013,07,05,00,32,14.70
2013,07,05,00,33,14.70
2013,07,05,00,34,14.70
2013,07,05,00,35,14.70
2013,07,05,00,36,14.70
2013,07,05,00,37,14.70
2013,07,05,00,38,14.70
2013,07,05,00,39,14.70
2013,07,05,00,40,14.60
2013,07,05,00,41,14.60
2013,07,05,00,42,14.60
2013,07,05,00,43,14.60
2013,07,05,00,44,14.60
2013,07,05,00,45,14.60
2013,07,05,00,46,14.60
2013,07,05,00,47,14.60
2013,07,05,00,48,14.60
2013,07,05,00,49,14.60
2013,07,05,00,50,14.60
2013,07,05,00,51,14.60
2013,07,05,00,52,14.60
2013,07,05,00,53,14.50
2013,07,05,00,54,14.50
2013,07,05,00,55,14.50
2013,07,05,00,56,14.50
2013,07,05,00,57,14.50
2013,07,05,00,58,14.50
2013,07,05,00,59,14.50
2013,07,05,01,00,14.50
2013,07,05,01,01,14.40
2013,07,05,01,02,14.40
2013,07,05,01,03,14.40
2013,07,05,01,04,14.40
2013,07,05,01,05,14.40
2013,07,05,01,06,14.40
2013,07,05,01,07,14.40
2013,07,05,01,08,14.40
2013,07,05,01,09,14.40
2013,07,05,01,10,14.40
2013,07,05,01,11,14.30
2013,07,05,01,12,14.30
2013,07,05,01,13,14.30
2013,07,05,01,14,14.30
2013,07,05,01,15,14.30
2013,07,05,01,16,14.30
2013,07,05,01,17,14.30
2013,07,05,01,18,14.30
2013,07,05,01,19,14.20
2013,07,05,01,20,14.20
2013,07,05,01,21,14.20
2013,07,05,01,22,14.20
2013,07,05,01,23,14.20
2013,07,05,01,24,14.20
2013,07,05,01,25,14.10
2013,07,05,01,26,14.10
2013,07,05,01,27,14.10
2013,07,05,01,28,14.10
2013,07,05,01,29,14.00
2013,07,05,01,30,14.00
2013,07,05,01,31,14.00
2013,07,05,01,32,14.00
2013,07,05,01,33,13.90
2013,07,05,01,34,13.90
2013,07,05,01,35,13.90
2013,07,05,01,36,13.90
2013,07,05,01,37,13.90
2013,07,05,01,38,13.90
2013,07,05,01,39,13.90
2013,07,05,01,40,13.90
2013,07,05,01,41,13.90
2013,07,05,01,42,13.90
2013,07,05,01,43,13.90
2013,07,05,01,44,13.90
2013,07,05,01,45,13.90
2013,07,05,01,46,13.90
2013,07,05,01,47,13.90
2013,07,05,01,48,13.80
2013,07,05,01,49,13.80
2013,07,05,01,50,13.80
2013,07,05,01,51,13.80
2013,07,05,01,52,13.80
2013,07,05,01,53,13.80
2013,07,05,01,54,13.80
2013,07,05,01,55,13.80
2013,07,05,01,56,13.80
2013,07,05,01,57,13.80
2013,07,05,01,58,13.80
2013,07,05,01,59,13.80
2013,07,05,02,00,13.80
2013,07,05,02,01,13.80
2013,07,05,02,02,13.80
2013,07,05,02,03,13.80
2013,07,05,02,04,13.80
2013,07,05,02,05,13.80
2013,07,05,02,06,13.80
2013,07,05,02,07,13.70
2013,07,05,02,08,13.70
2013,07,05,02,09,13.70
2013,07,05,02,10,13.70
2013,07,05,02,11,13.70
2013,07,05,02,12,13.70
2013,07,05,02,13,13.70
2013,07,05,02,14,13.70
2013,07,05,02,15,13.70
2013,07,05,02,16,13.70
2013,07,05,02,17,13.70
2013,07,05,02,18,13.70
2013,07,05,02,19,13.60
2013,07,05,02,20,13.60
2013,07,05,02,21,13.60
2013,07,05,02,22,13.60
2013,07,05,02,23,13.60
2013,07,05,02,24,13.60
2013,07,05,02,25,13.60
2013,07,05,02,26,13.60
2013,07,05,02,27,13.60
2013,07,05,02,28,13.60
2013,07,05,02,29,13.60
2013,07,05,02,30,13.60
2013,07,05,02,31,13.60
2013,07,05,02,32,13.60
2013,07,05,02,33,13.60
2013,07,05,02,34,13.60
2013,07,05,02,35,13.60
2013,07,05,02,36,13.60
2013,07,05,02,37,13.50
2013,07,05,02,38,13.50
2013,07,05,02,39,13.50
2013,07,05,02,40,13.50
2013,07,05,02,41,13.50
2013,07,05,02,42,13.50
2013,07,05,02,43,13.50
2013,07,05,02,44,13.50
2013,07,05,02,45,13.50
2013,07,05,02,46,13.40
2013,07,05,02,47,13.40
2013,07,05,02,48,13.40
2013,07,05,02,49,13.40
2013,07,05,02,50,13.40
2013,07,05,02,51,13.40
2013,07,05,02,52,13.40
2013,07,05,02,53,13.40
2013,07,05,02,54,13.40
2013,07,05,02,55,13.40
2013,07,05,02,56,13.40
2013,07,05,02,57,13.40
2013,07,05,02,58,13.40
2013,07,05,02,59,13.40
2013,07,05,03,00,13.40
2013,07,05,03,01,13.40
2013,07,05,03,02,13.40
2013,07,05,03,03,13.40
2013,07,05,03,04,13.40
2013,07,05,03,05,13.40
2013,07,05,03,06,13.40
2013,07,05,03,07,13.40
2013,07,05,03,08,13.40
2013,07,05,03,09,13.30
2013,07,05,03,10,13.30
2013,07,05,03,11,13.30
2013,07,05,03,12,13.40
2013,07,05,03,13,13.40
2013,07,05,03,14,13.40
2013,07,05,03,15,13.40
2013,07,05,03,16,13.40
2013,07,05,03,17,13.30
2013,07,05,03,18,13.30
2013,07,05,03,19,13.30
2013,07,05,03,20,13.30
2013,07,05,03,21,13.20
2013,07,05,03,22,13.20
2013,07,05,03,23,13.20
2013,07,05,03,24,13.20
2013,07,05,03,25,13.20
2013,07,05,03,26,13.20
2013,07,05,03,27,13.20
2013,07,05,03,28,13.20
2013,07,05,03,29,13.20
2013,07,05,03,30,13.20
2013,07,05,03,31,13.20
2013,07,05,03,32,13.10
2013,07,05,03,33,13.10
2013,07,05,03,34,13.10
2013,07,05,03,35,13.10
2013,07,05,03,36,13.10
2013,07,05,03,37,13.10
2013,07,05,03,38,13.10
2013,07,05,03,39,13.10
2013,07,05,03,40,13.10
2013,07,05,03,41,13.10
2013,07,05,03,42,13.10
2013,07,05,03,43,13.10
2013,07,05,03,44,13.10
2013,07,05,03,45,13.00
2013,07,05,03,46,13.00
2013,07,05,03,47,13.00
2013,07,05,03,48,13.00
2013,07,05,03,49,13.00
2013,07,05,03,50,13.00
2013,07,05,03,51,13.00
2013,07,05,03,52,13.00
2013,07,05,03,53,13.00
2013,07,05,03,54,13.00
2013,07,05,03,55,13.00
2013,07,05,03,56,13.00
2013,07,05,03,57,13.00
2013,07,05,03,58,13.00
2013,07,05,03,59,13.00
2013,07,05,04,00,13.00
2013,07,05,04,01,13.10
2013,07,05,04,02,13.10
2013,07,05,04,03,13.10
2013,07,05,04,04,13.10
2013,07,05,04,05,13.10
2013,07,05,04,06,13.10
2013,07,05,04,07,13.10
2013,07,05,04,08,13.10
2013,07,05,04,09,13.10
2013,07,05,04,10,13.10
2013,07,05,04,11,13.10
2013,07,05,04,12,13.10
2013,07,05,04,13,13.10
2013,07,05,04,14,13.10
2013,07,05,04,15,13.10
2013,07,05,04,16,13.10
2013,07,05,04,17,13.10
2013,07,05,04,18,13.10
2013,07,05,04,19,13.10
2013,07,05,04,20,13.00
2013,07,05,04,21,13.00
2013,07,05,04,22,13.00
2013,07,05,04,23,13.00
2013,07,05,04,24,13.00
2013,07,05,04,25,13.00
2013,07,05,04,26,13.00
2013,07,05,04,27,13.00
2013,07,05,04,28,13.00
2013,07,05,04,29,13.00
2013,07,05,04,30,12.90
2013,07,05,04,31,13.00
2013,07,05,04,32,13.00
2013,07,05,04,33,13.00
2013,07,05,04,34,13.00
2013,07,05,04,35,13.00
2013,07,05,04,36,13.00
2013,07,05,04,37,13.00
2013,07,05,04,38,13.00
2013,07,05,04,39,12.90
2013,07,05,04,40,12.90
2013,07,05,04,41,12.90
2013,07,05,04,42,12.90
2013,07,05,04,43,12.90
2013,07,05,04,44,12.90
2013,07,05,04,45,12.90
2013,07,05,04,46,12.90
2013,07,05,04,47,12.90
2013,07,05,04,48,12.90
2013,07,05,04,49,12.90
2013,07,05,04,50,12.90
2013,07,05,04,51,12.90
2013,07,05,04,52,12.90
2013,07,05,04,53,12.90
2013,07,05,04,54,12.90
2013,07,05,04,55,12.90
2013,07,05,04,56,12.90
2013,07,05,04,57,12.90
2013,07,05,04,58,12.90
2013,07,05,04,59,12.90
2013,07,05,05,00,12.90
2013,07,05,05,01,12.90
2013,07,05,05,02,12.90
2013,07,05,05,03,12.90
2013,07,05,05,04,12.80
2013,07,05,05,05,12.80
2013,07,05,05,06,12.80
2013,07,05,05,07,12.80
2013,07,05,05,08,12.80
2013,07,05,05,09,12.80
2013,07,05,05,10,12.80
2013,07,05,05,11,12.70
2013,07,05,05,12,12.70
2013,07,05,05,13,12.70
2013,07,05,05,14,12.70
2013,07,05,05,15,12.70
2013,07,05,05,16,12.60
2013,07,05,05,17,12.60
2013,07,05,05,18,12.60
2013,07,05,05,19,12.60
2013,07,05,05,20,12.60
2013,07,05,05,21,12.60
2013,07,05,05,22,12.60
2013,07,05,05,23,12.60
2013,07,05,05,24,12.50
2013,07,05,05,25,12.50
2013,07,05,05,26,12.50
2013,07,05,05,27,12.50
2013,07,05,05,28,12.50
2013,07,05,05,29,12.50
2013,07,05,05,30,12.50
2013,07,05,05,31,12.50
2013,07,05,05,32,12.50
2013,07,05,05,33,12.50
2013,07,05,05,34,12.50
2013,07,05,05,35,12.50
2013,07,05,05,36,12.50
2013,07,05,05,37,12.40
2013,07,05,05,38,12.40
2013,07,05,05,39,12.40
2013,07,05,05,40,12.40
2013,07,05,05,41,12.40
2013,07,05,05,42,12.40
2013,07,05,05,43,12.40
2013,07,05,05,44,12.40
2013,07,05,05,45,12.40
2013,07,05,05,46,12.40
2013,07,05,05,47,12.40
2013,07,05,05,48,12.40
2013,07,05,05,49,12.40
2013,07,05,05,50,12.40
2013,07,05,05,51,12.40
2013,07,05,05,52,12.40
2013,07,05,05,53,12.40
2013,07,05,05,54,12.40
2013,07,05,05,55,12.40
2013,07,05,05,56,12.30
2013,07,05,05,57,12.30
2013,07,05,05,58,12.30
2013,07,05,05,59,12.30
2013,07,05,06,00,12.30
2013,07,05,06,01,12.30
2013,07,05,06,02,12.30
2013,07,05,06,03,12.40
2013,07,05,06,04,12.40
2013,07,05,06,05,12.40
2013,07,05,06,06,12.40
2013,07,05,06,07,12.40
2013,07,05,06,08,12.40
2013,07,05,06,09,12.40
2013,07,05,06,10,12.40
2013,07,05,06,11,12.40
2013,07,05,06,12,12.40
2013,07,05,06,13,12.40
2013,07,05,06,14,12.40
2013,07,05,06,15,12.40
2013,07,05,06,16,12.40
2013,07,05,06,17,12.40
2013,07,05,06,18,12.50
2013,07,05,06,19,12.50
2013,07,05,06,20,12.50
2013,07,05,06,21,12.50
2013,07,05,06,22,12.50
2013,07,05,06,23,12.50
2013,07,05,06,24,12.50
2013,07,05,06,25,12.50
2013,07,05,06,26,12.50
2013,07,05,06,27,12.50
2013,07,05,06,28,12.50
2013,07,05,06,29,12.50
2013,07,05,06,30,12.50
2013,07,05,06,31,12.50
2013,07,05,06,32,12.40
2013,07,05,06,33,12.50
2013,07,05,06,34,12.50
2013,07,05,06,35,12.50
2013,07,05,06,36,12.50
2013,07,05,06,37,12.50
2013,07,05,06,38,12.50
2013,07,05,06,39,12.50
2013,07,05,06,40,12.50
2013,07,05,06,41,12.50
2013,07,05,06,42,12.50
2013,07,05,06,43,12.50
2013,07,05,06,44,12.50
2013,07,05,06,45,12.50
2013,07,05,06,46,12.60
2013,07,05,06,47,12.60
2013,07,05,06,48,12.60
2013,07,05,06,49,12.60
2013,07,05,06,50,12.60
2013,07,05,06,51,12.60
2013,07,05,06,52,12.60
2013,07,05,06,53,12.60
2013,07,05,06,54,12.60
2013,07,05,06,55,12.70
2013,07,05,06,56,12.70
2013,07,05,06,57,12.70
2013,07,05,06,58,12.70
2013,07,05,06,59,12.70
2013,07,05,07,00,12.70
2013,07,05,07,01,12.70
2013,07,05,07,02,12.70
2013,07,05,07,03,12.70
2013,07,05,07,04,12.70
2013,07,05,07,05,12.70
2013,07,05,07,06,12.70
2013,07,05,07,07,12.70
2013,07,05,07,08,12.80
2013,07,05,07,09,12.80
2013,07,05,07,10,12.80
2013,07,05,07,11,12.80
2013,07,05,07,12,12.80
2013,07,05,07,13,12.80
2013,07,05,07,14,12.80
2013,07,05,07,15,12.90
2013,07,05,07,16,12.90
2013,07,05,07,17,12.90
2013,07,05,07,18,12.90
2013,07,05,07,19,12.90
2013,07,05,07,20,12.90
2013,07,05,07,21,13.00
2013,07,05,07,22,13.00
2013,07,05,07,23,13.00
2013,07,05,07,24,13.10
2013,07,05,07,25,13.10
2013,07,05,07,26,13.10
2013,07,05,07,27,13.20
2013,07,05,07,28,13.20
2013,07,05,07,29,13.20
2013,07,05,07,30,13.20
2013,07,05,07,31,13.20
2013,07,05,07,32,13.30
2013,07,05,07,33,13.30
2013,07,05,07,34,13.30
2013,07,05,07,35,13.30
2013,07,05,07,36,13.30
2013,07,05,07,37,13.30
2013,07,05,07,38,13.30
2013,07,05,07,39,13.40
2013,07,05,07,40,13.40
2013,07,05,07,41,13.40
2013,07,05,07,42,13.40
2013,07,05,07,43,13.50
2013,07,05,07,44,13.50
2013,07,05,07,45,13.50
2013,07,05,07,46,13.60
2013,07,05,07,47,13.60
2013,07,05,07,48,13.60
2013,07,05,07,49,13.70
2013,07,05,07,50,13.70
2013,07,05,07,51,13.80
2013,07,05,07,52,13.90
2013,07,05,07,53,13.90
2013,07,05,07,54,14.00
2013,07,05,07,55,14.00
2013,07,05,07,56,14.00
2013,07,05,07,57,14.10
2013,07,05,07,58,14.10
2013,07,05,07,59,14.20
2013,07,05,08,00,14.20
2013,07,05,08,01,14.20
2013,07,05,08,02,14.30
2013,07,05,08,03,14.30
2013,07,05,08,04,14.30
2013,07,05,08,05,14.30
2013,07,05,08,06,14.40
2013,07,05,08,07,14.40
2013,07,05,08,08,14.40
2013,07,05,08,09,14.40
2013,07,05,08,10,14.40
2013,07,05,08,11,14.40
2013,07,05,08,12,14.50
2013,07,05,08,13,14.50
2013,07,05,08,14,14.50
2013,07,05,08,15,14.60
2013,07,05,08,16,14.60
2013,07,05,08,17,14.60
2013,07,05,08,18,14.70
2013,07,05,08,19,14.70
2013,07,05,08,20,14.80
2013,07,05,08,21,14.80
2013,07,05,08,22,14.80
2013,07,05,08,23,14.90
2013,07,05,08,24,14.90
2013,07,05,08,25,15.00
2013,07,05,08,26,15.00
2013,07,05,08,27,15.00
2013,07,05,08,28,15.00
2013,07,05,08,29,15.00
2013,07,05,08,30,15.00
2013,07,05,08,31,15.10
2013,07,05,08,32,15.20
2013,07,05,08,33,15.30
2013,07,05,08,34,15.30
2013,07,05,08,35,15.30
2013,07,05,08,36,15.40
2013,07,05,08,37,15.40
2013,07,05,08,38,15.40
2013,07,05,08,39,15.50
2013,07,05,08,40,15.60
2013,07,05,08,41,15.60
2013,07,05,08,42,15.70
2013,07,05,08,43,15.70
2013,07,05,08,44,15.80
2013,07,05,08,45,15.80
2013,07,05,08,46,15.90
2013,07,05,08,47,16.00
2013,07,05,08,48,16.10
2013,07,05,08,49,16.20
2013,07,05,08,50,16.30
2013,07,05,08,51,16.30
2013,07,05,08,52,16.40
2013,07,05,08,53,16.40
2013,07,05,08,54,16.40
2013,07,05,08,55,16.40
2013,07,05,08,56,16.40
2013,07,05,08,57,16.40
2013,07,05,08,58,16.40
2013,07,05,08,59,16.50
2013,07,05,09,00,16.50
2013,07,05,09,01,16.50
2013,07,05,09,02,16.60
2013,07,05,09,03,16.60
2013,07,05,09,04,16.60
2013,07,05,09,05,16.70
2013,07,05,09,06,16.80
2013,07,05,09,07,16.80
2013,07,05,09,08,16.80
2013,07,05,09,09,16.80
2013,07,05,09,10,16.80
2013,07,05,09,11,16.90
2013,07,05,09,12,16.90
2013,07,05,09,13,16.90
2013,07,05,09,14,17.00
2013,07,05,09,15,17.10
2013,07,05,09,16,17.10
2013,07,05,09,17,17.20
2013,07,05,09,18,17.20
2013,07,05,09,19,17.30
2013,07,05,09,20,17.30
2013,07,05,09,21,17.30
2013,07,05,09,22,17.40
2013,07,05,09,23,17.40
2013,07,05,09,24,17.40
2013,07,05,09,25,17.50
2013,07,05,09,26,17.50
2013,07,05,09,27,17.60
2013,07,05,09,28,17.60
2013,07,05,09,29,17.70
2013,07,05,09,30,17.80
2013,07,05,09,31,17.90
2013,07,05,09,32,17.90
2013,07,05,09,33,18.00
2013,07,05,09,34,18.10
2013,07,05,09,35,18.20
2013,07,05,09,36,18.20
2013,07,05,09,37,18.20
2013,07,05,09,38,18.30
2013,07,05,09,39,18.30
2013,07,05,09,40,18.30
2013,07,05,09,41,18.40
2013,07,05,09,42,18.40
2013,07,05,09,43,18.40
2013,07,05,09,44,18.40
2013,07,05,09,45,18.40
2013,07,05,09,46,18.50
2013,07,05,09,47,18.50
2013,07,05,09,48,18.50
2013,07,05,09,49,18.60
2013,07,05,09,50,18.60
2013,07,05,09,51,18.70
2013,07,05,09,52,18.70
2013,07,05,09,53,18.80
2013,07,05,09,54,18.80
2013,07,05,09,55,18.80
2013,07,05,09,56,18.90
2013,07,05,09,57,19.00
2013,07,05,09,58,19.00
2013,07,05,09,59,19.10
2013,07,05,10,00,19.10
2013,07,05,10,01,19.20
2013,07,05,10,02,19.20
2013,07,05,10,03,19.20
2013,07,05,10,04,19.10
2013,07,05,10,05,19.10
2013,07,05,10,06,19.00
2013,07,05,10,07,18.90
2013,07,05,10,08,18.90
2013,07,05,10,09,18.90
2013,07,05,10,10,18.90
2013,07,05,10,11,18.90
2013,07,05,10,12,18.90
2013,07,05,10,13,18.90
2013,07,05,10,14,18.90
2013,07,05,10,15,18.90
2013,07,05,10,16,18.90
2013,07,05,10,17,18.90
2013,07,05,10,18,18.90
2013,07,05,10,19,18.90
2013,07,05,10,20,18.90
2013,07,05,10,21,18.90
2013,07,05,10,22,18.90
2013,07,05,10,23,18.90
2013,07,05,10,24,18.90
2013,07,05,10,25,19.00
2013,07,05,10,26,19.00
2013,07,05,10,27,19.10
2013,07,05,10,28,19.10
2013,07,05,10,29,19.20
2013,07,05,10,30,19.20
2013,07,05,10,31,19.20
2013,07,05,10,32,19.20
2013,07,05,10,33,19.20
2013,07,05,10,34,19.30
2013,07,05,10,35,19.30
2013,07,05,10,36,19.40
2013,07,05,10,37,19.40
2013,07,05,10,38,19.50
2013,07,05,10,39,19.60
2013,07,05,10,40,19.70
2013,07,05,10,41,19.80
2013,07,05,10,42,19.90
2013,07,05,10,43,20.00
2013,07,05,10,44,20.10
2013,07,05,10,45,20.20
2013,07,05,10,46,20.30
2013,07,05,10,47,20.30
2013,07,05,10,48,20.30
2013,07,05,10,49,20.30
2013,07,05,10,50,20.30
2013,07,05,10,51,20.30
2013,07,05,10,52,20.30
2013,07,05,10,53,20.40
2013,07,05,10,54,20.30
2013,07,05,10,55,20.30
2013,07,05,10,56,20.20
2013,07,05,10,57,20.20
2013,07,05,10,58,20.20
2013,07,05,10,59,20.20
2013,07,05,11,00,20.20
2013,07,05,11,01,20.20
2013,07,05,11,02,20.30
2013,07,05,11,03,20.30
2013,07,05,11,04,20.40
2013,07,05,11,05,20.50
2013,07,05,11,06,20.60
2013,07,05,11,07,20.70
2013,07,05,11,08,20.80
2013,07,05,11,09,20.80
2013,07,05,11,10,20.80
2013,07,05,11,11,20.80
2013,07,05,11,12,20.90
2013,07,05,11,13,20.90
2013,07,05,11,14,20.90
2013,07,05,11,15,20.90
2013,07,05,11,16,20.90
2013,07,05,11,17,20.90
2013,07,05,11,18,20.90
2013,07,05,11,19,20.90
2013,07,05,11,20,21.00
2013,07,05,11,21,21.10
2013,07,05,11,22,21.20
2013,07,05,11,23,21.20
2013,07,05,11,24,21.30
2013,07,05,11,25,21.30
2013,07,05,11,26,21.40
2013,07,05,11,27,21.40
2013,07,05,11,28,21.40
2013,07,05,11,29,21.40
2013,07,05,11,30,21.40
2013,07,05,11,31,21.40
2013,07,05,11,32,21.40
2013,07,05,11,33,21.40
2013,07,05,11,34,21.40
2013,07,05,11,35,21.30
2013,07,05,11,36,21.30
2013,07,05,11,37,21.30
2013,07,05,11,38,21.20
2013,07,05,11,39,21.20
2013,07,05,11,40,21.20
2013,07,05,11,41,21.20
2013,07,05,11,42,21.20
2013,07,05,11,43,21.20
2013,07,05,11,44,21.20
2013,07,05,11,45,21.20
2013,07,05,11,46,21.20
2013,07,05,11,47,21.20
2013,07,05,11,48,21.20
2013,07,05,11,49,21.30
2013,07,05,11,50,21.30
2013,07,05,11,51,21.40
2013,07,05,11,52,21.40
2013,07,05,11,53,21.40
2013,07,05,11,54,21.40
2013,07,05,11,55,21.50
2013,07,05,11,56,21.50
2013,07,05,11,57,21.60
2013,07,05,11,58,21.70
2013,07,05,11,59,21.70
2013,07,05,12,00,21.80
2013,07,05,12,01,21.80
2013,07,05,12,02,21.80
2013,07,05,12,03,21.90
2013,07,05,12,04,21.90
2013,07,05,12,05,21.80
2013,07,05,12,06,21.80
2013,07,05,12,07,21.80
2013,07,05,12,08,21.90
2013,07,05,12,09,21.90
2013,07,05,12,10,22.00
2013,07,05,12,11,22.00
2013,07,05,12,12,22.10
2013,07,05,12,13,22.20
2013,07,05,12,14,22.20
2013,07,05,12,15,22.20
2013,07,05,12,16,22.20
2013,07,05,12,17,22.20
2013,07,05,12,18,22.20
2013,07,05,12,19,22.20
2013,07,05,12,20,22.20
2013,07,05,12,21,22.20
2013,07,05,12,22,22.20
2013,07,05,12,23,22.20
2013,07,05,12,24,22.30
2013,07,05,12,25,22.30
2013,07,05,12,26,22.30
2013,07,05,12,27,22.30
2013,07,05,12,28,22.30
2013,07,05,12,29,22.30
2013,07,05,12,30,22.30
2013,07,05,12,31,22.30
2013,07,05,12,32,22.30
2013,07,05,12,33,22.30
2013,07,05,12,34,22.20
2013,07,05,12,35,22.20
2013,07,05,12,36,22.20
2013,07,05,12,37,22.20
2013,07,05,12,38,22.20
2013,07,05,12,39,22.20
2013,07,05,12,40,22.30
2013,07,05,12,41,22.30
2013,07,05,12,42,22.30
2013,07,05,12,43,22.30
2013,07,05,12,44,22.30
2013,07,05,12,45,22.30
2013,07,05,12,46,22.30
2013,07,05,12,47,22.30
2013,07,05,12,48,22.30
2013,07,05,12,49,22.40
2013,07,05,12,50,22.40
2013,07,05,12,51,22.40
2013,07,05,12,52,22.50
2013,07,05,12,53,22.60
2013,07,05,12,54,22.60
2013,07,05,12,55,22.60
2013,07,05,12,56,22.60
2013,07,05,12,57,22.70
2013,07,05,12,58,22.70
2013,07,05,12,59,22.70
2013,07,05,13,00,22.70
2013,07,05,13,01,22.80
2013,07,05,13,02,22.70
2013,07,05,13,03,22.70
2013,07,05,13,04,22.70
2013,07,05,13,05,22.60
2013,07,05,13,06,22.60
2013,07,05,13,07,22.60
2013,07,05,13,08,22.60
2013,07,05,13,09,22.70
2013,07,05,13,10,22.70
2013,07,05,13,11,22.70
2013,07,05,13,12,22.60
2013,07,05,13,13,22.40
2013,07,05,13,14,22.30
2013,07,05,13,15,22.20
2013,07,05,13,16,22.10
2013,07,05,13,17,22.10
2013,07,05,13,18,22.00
2013,07,05,13,19,22.00
2013,07,05,13,20,22.10
2013,07,05,13,21,22.10
2013,07,05,13,22,22.10
2013,07,05,13,23,22.10
2013,07,05,13,24,22.20
2013,07,05,13,25,22.20
2013,07,05,13,26,22.20
2013,07,05,13,27,22.30
2013,07,05,13,28,22.30
2013,07,05,13,29,22.30
2013,07,05,13,30,22.30
2013,07,05,13,31,22.30
2013,07,05,13,32,22.30
2013,07,05,13,33,22.30
2013,07,05,13,34,22.30
2013,07,05,13,35,22.20
2013,07,05,13,36,22.10
2013,07,05,13,37,22.10
2013,07,05,13,38,22.00
2013,07,05,13,39,21.90
2013,07,05,13,40,21.90
2013,07,05,13,41,21.80
2013,07,05,13,42,21.80
2013,07,05,13,43,21.80
2013,07,05,13,44,21.90
2013,07,05,13,45,21.80
2013,07,05,13,46,21.80
2013,07,05,13,47,21.80
2013,07,05,13,48,21.80
2013,07,05,13,49,21.80
2013,07,05,13,50,21.80
2013,07,05,13,51,21.90
2013,07,05,13,52,22.00
2013,07,05,13,53,22.10
2013,07,05,13,54,22.20
2013,07,05,13,55,22.30
2013,07,05,13,56,22.40
2013,07,05,13,57,22.50
2013,07,05,13,58,22.60
2013,07,05,13,59,22.70
2013,07,05,14,00,22.80
2013,07,05,14,01,22.90
2013,07,05,14,02,23.00
2013,07,05,14,03,23.00
2013,07,05,14,04,23.10
2013,07,05,14,05,23.10
2013,07,05,14,06,23.00
2013,07,05,14,07,23.00
2013,07,05,14,08,23.10
2013,07,05,14,09,23.10
2013,07,05,14,10,23.20
2013,07,05,14,11,23.20
2013,07,05,14,12,23.30
2013,07,05,14,13,23.40
2013,07,05,14,14,23.40
2013,07,05,14,15,23.40
2013,07,05,14,16,23.40
2013,07,05,14,17,23.40
2013,07,05,14,18,23.40
2013,07,05,14,19,23.40
2013,07,05,14,20,23.30
2013,07,05,14,21,23.30
2013,07,05,14,22,23.20
2013,07,05,14,23,23.20
2013,07,05,14,24,23.20
2013,07,05,14,25,23.10
2013,07,05,14,26,23.00
2013,07,05,14,27,22.90
2013,07,05,14,28,22.90
2013,07,05,14,29,22.80
2013,07,05,14,30,22.80
2013,07,05,14,31,22.80
2013,07,05,14,32,22.80
2013,07,05,14,33,22.80
2013,07,05,14,34,22.80
2013,07,05,14,35,22.80
2013,07,05,14,36,22.80
2013,07,05,14,37,22.80
2013,07,05,14,38,22.90
2013,07,05,14,39,22.90
2013,07,05,14,40,23.00
2013,07,05,14,41,23.00
2013,07,05,14,42,23.10
2013,07,05,14,43,23.10
2013,07,05,14,44,23.20
2013,07,05,14,45,23.20
2013,07,05,14,46,23.30
2013,07,05,14,47,23.40
2013,07,05,14,48,23.50
2013,07,05,14,49,23.50
2013,07,05,14,50,23.60
2013,07,05,14,51,23.70
2013,07,05,14,52,23.70
2013,07,05,14,53,23.60
2013,07,05,14,54,23.40
2013,07,05,14,55,23.30
2013,07,05,14,56,23.20
2013,07,05,14,57,23.00
2013,07,05,14,58,22.90
2013,07,05,14,59,22.70
2013,07,05,15,00,22.60
2013,07,05,15,01,22.40
2013,07,05,15,02,22.30
2013,07,05,15,03,22.20
2013,07,05,15,04,22.10
2013,07,05,15,05,22.00
2013,07,05,15,06,22.00
2013,07,05,15,07,22.00
2013,07,05,15,08,22.10
2013,07,05,15,09,22.10
2013,07,05,15,10,22.20
2013,07,05,15,11,22.20
2013,07,05,15,12,22.30
2013,07,05,15,13,22.50
2013,07,05,15,14,22.60
2013,07,05,15,15,22.70
2013,07,05,15,16,22.70
2013,07,05,15,17,22.70
2013,07,05,15,18,22.70
2013,07,05,15,19,22.70
2013,07,05,15,20,22.80
2013,07,05,15,21,22.90
2013,07,05,15,22,22.90
2013,07,05,15,23,23.00
2013,07,05,15,24,22.90
2013,07,05,15,25,22.80
2013,07,05,15,26,22.80
2013,07,05,15,27,22.80
2013,07,05,15,28,22.80
2013,07,05,15,29,22.80
2013,07,05,15,30,22.80
2013,07,05,15,31,22.80
2013,07,05,15,32,22.90
2013,07,05,15,33,23.10
2013,07,05,15,34,23.20
2013,07,05,15,35,23.20
2013,07,05,15,36,23.30
2013,07,05,15,37,23.40
2013,07,05,15,38,23.50
2013,07,05,15,39,23.50
2013,07,05,15,40,23.60
2013,07,05,15,41,23.60
2013,07,05,15,42,23.70
2013,07,05,15,43,23.70
2013,07,05,15,44,23.80
2013,07,05,15,45,23.80
2013,07,05,15,46,23.70
2013,07,05,15,47,23.60
2013,07,05,15,48,23.50
2013,07,05,15,49,23.50
2013,07,05,15,50,23.60
2013,07,05,15,51,23.60
2013,07,05,15,52,23.60
2013,07,05,15,53,23.70
2013,07,05,15,54,23.70
2013,07,05,15,55,23.70
2013,07,05,15,56,23.60
2013,07,05,15,57,23.50
2013,07,05,15,58,23.30
2013,07,05,15,59,23.20
2013,07,05,16,00,23.00
2013,07,05,16,01,23.00
2013,07,05,16,02,22.90
2013,07,05,16,03,22.90
2013,07,05,16,04,22.90
2013,07,05,16,05,22.80
2013,07,05,16,06,22.80
2013,07,05,16,07,22.80
2013,07,05,16,08,22.80
2013,07,05,16,09,22.80
2013,07,05,16,10,22.80
2013,07,05,16,11,22.90
2013,07,05,16,12,22.90
2013,07,05,16,13,22.90
2013,07,05,16,14,22.90
2013,07,05,16,15,22.90
2013,07,05,16,16,22.90
2013,07,05,16,17,22.90
2013,07,05,16,18,22.90
2013,07,05,16,19,23.00
2013,07,05,16,20,23.00
2013,07,05,16,21,23.10
2013,07,05,16,22,23.10
2013,07,05,16,23,23.10
2013,07,05,16,24,23.10
2013,07,05,16,25,23.10
2013,07,05,16,26,23.20
2013,07,05,16,27,23.30
2013,07,05,16,28,23.30
2013,07,05,16,29,23.20
2013,07,05,16,30,23.10
2013,07,05,16,31,23.00
2013,07,05,16,32,23.00
2013,07,05,16,33,23.00
2013,07,05,16,34,23.00
2013,07,05,16,35,23.00
2013,07,05,16,36,23.00
2013,07,05,16,37,23.10
2013,07,05,16,38,23.10
2013,07,05,16,39,23.10
2013,07,05,16,40,23.20
2013,07,05,16,41,23.30
2013,07,05,16,42,23.40
2013,07,05,16,43,23.50
2013,07,05,16,44,23.60
2013,07,05,16,45,23.60
2013,07,05,16,46,23.60
2013,07,05,16,47,23.40
2013,07,05,16,48,23.30
2013,07,05,16,49,23.20
2013,07,05,16,50,23.10
2013,07,05,16,51,23.10
2013,07,05,16,52,23.10
2013,07,05,16,53,23.10
2013,07,05,16,54,23.10
2013,07,05,16,55,23.20
2013,07,05,16,56,23.30
2013,07,05,16,57,23.30
2013,07,05,16,58,23.30
2013,07,05,16,59,23.30
2013,07,05,17,00,23.20
2013,07,05,17,01,23.20
2013,07,05,17,02,23.10
2013,07,05,17,03,23.10
2013,07,05,17,04,23.10
2013,07,05,17,05,23.20
2013,07,05,17,06,23.20
2013,07,05,17,07,23.30
2013,07,05,17,08,23.40
2013,07,05,17,09,23.50
2013,07,05,17,10,23.50
2013,07,05,17,11,23.60
2013,07,05,17,12,23.60
2013,07,05,17,13,23.70
2013,07,05,17,14,23.80
2013,07,05,17,15,23.90
2013,07,05,17,16,23.90
2013,07,05,17,17,24.00
2013,07,05,17,18,24.10
2013,07,05,17,19,24.10